Hourly Data Report for January 25, 2022

BANCROFT AUTO
ONTARIO
Current Station Operator: ECCC - MSC

45°04'17.000" N
77°52'44.000" W
330.70 m
616I001
71294
WRK

Download Data

Hourly Data (January 2022)
Hourly Data Report for January 25, 2022
TIME
LST
Temp Definition
°C
Dew Point Definition
°C
Rel Hum Definition
%
Precip. Amount Definition
mm

Wind Dir Definition
10's deg

Wind Spd Definition
km/h
Visibility Definition
km
Stn Press Definition
kPa
Hmdx Definition


Wind Chill Definition


Weather Definition


00:00 -11.3 -12.9 88 0.1 16 2   96.56   -13 LegendNANA
01:00 -12.7 -14.2 88 0.1 17 1   96.56   -13 LegendNANA
02:00 -14.5 -16.2 87 0.1   0   96.58     LegendNANA
03:00 -16.0 -17.8 86 0.0   0   96.62     LegendNANA
04:00 -15.7 -17.3 87 0.0   0   96.67     LegendNANA
05:00 -14.4 -16.0 87 0.0 0 1   96.72   -15 LegendNANA
06:00 -15.8 -17.8 85 0.0   0   96.82     LegendNANA
07:00 -19.4 -21.4 84 0.0 0 1   96.97   -20 LegendNANA
08:00 -18.9 -20.7 86 0.0 21 1   97.07   -20 LegendNANA
09:00 -12.9 -14.6 87 0.0 32 6   97.20   -17 LegendNANA
10:00 -11.6 -14.5 79 0.0 31 6   97.28   -15 LegendNANA
11:00 -11.0 -15.0 72 0.0 32 6   97.38   -15 LegendNANA
12:00 -10.6 -16.2 63 0.0 30 14   97.42   -17 LegendNANA
13:00 -9.7 -16.9 56 0.0 29 12   97.45   -16 LegendNANA
14:00 -10.5 -19.1 49 0.0 29 9   97.49   -15 LegendNANA
15:00 -10.5 -20.1 45 0.0 28 7   97.57   -15 LegendNANA
16:00 -11.6 -20.5 48 0.0 28 8   97.67   -16 LegendNANA
17:00 -13.3 -20.9 53 0.0 29 6   97.78   -17 LegendNANA
18:00 -15.7 -21.7 60 0.0 27 3   97.92   -18 LegendNANA
19:00 -19.0 -23.0 71 0.0   0   98.01     LegendNANA
20:00 -21.3 -24.1 78 0.0 28 1   98.05   -22 LegendNANA
21:00 -24.1 -26.4 82 0.0 6 2   98.11   -26 LegendNANA
22:00 -25.9 -28.2 81 0.0   0   98.17     LegendNANA
23:00 -27.4 -30.0 79 0.0 30 1   98.24   -28 LegendNANA

Notes on Data Quality.

Legend

  • E = Estimated
  • M = Missing
  • NA = Not Available*
  • [empty] = Indicates an unobserved value
Date modified: